Location: Big Spring State Park
(32.2296°N, 101.4897°W)
Time: 13:52:43
(UTC-06:00)

ISS - Visible Passes

Search period start: 23 January 2018 00:00
Search period end: 02 February 2018 00:00
Orbit: 402 x 407 km, 51.6° (Epoch: 23 January)

Date Brightness Start Highest point End Pass type
(mag) Time Alt. Az. Time Alt. Az. Time Alt. Az.
23 Jan -2.7 18:59:22 10° S 19:02:12 28° SE 19:03:52 18° E visible
23 Jan -0.4 20:36:10 10° W 20:36:33 12° W 20:36:33 12° W visible
24 Jan -2.8 19:43:11 10° WSW 19:46:15 38° NW 19:46:50 35° NNW visible
25 Jan -3.9 18:50:39 10° SW 18:53:53 88° WNW 18:57:01 11° NE visible
26 Jan -1.4 19:36:00 10° WNW 19:38:12 17° NW 19:39:47 13° N visible
27 Jan -2.2 18:42:47 10° WSW 18:45:42 30° NW 18:48:38 10° NNE visible
